Location: Kurreville
(37.4753°N, 89.8215°W)
Time: 05:29:20
(UTC+00:00)

Daily predictions for brighter satellites

Satellite Brightness Start Highest point End
(mag) Time Altitude Azimuth Time Altitude Azimuth Time Altitude Azimuth
Gbstr 26 Del rocket 3.5 00:00:53 10° SSW 00:04:39 35° SE 00:05:34 30° ESE
Meteor 1-20 Rocket 4.1 00:02:00 10° N 00:07:24 58° E 00:12:44 10° SSE
Cosmos 1354 Rocket 4.3 00:02:41 10° S 00:07:42 46° ESE 00:10:25 25° NE
Cosmos 1743 2.1 00:06:11 10° N 00:09:27 86° E 00:12:41 10° S
Spot 4 Rocket 4.1 00:05:09 10° SE 00:10:01 49° ENE 00:14:56 10° N
Cosmos 1697 Rocket 2.9 00:05:25 10° S 00:10:43 46° ESE 00:13:24 27° NE
IRIDIUM 114 4.3 00:06:17 10° N 00:11:32 88° W 00:16:44 10° S
BREEZE-M DEB (TANK) 4.1 00:02:03 10° SSW 00:13:23 46° SE 00:15:41 29° E
SL-19 R/B 4.3 00:09:37 10° SE 00:14:34 46° ENE 00:19:44 10° N
Cosmos 1606 Rocket 3.4 00:16:20 10° S 00:20:40 73° E 00:23:21 23° NNE
Okean 1-7 Rocket 3.4 00:16:48 10° N 00:21:10 64° E 00:25:29 10° SSE
BREEZE-M DEB (TANK) 4.5 00:18:16 10° NW 00:21:59 31° NNE 00:23:52 27° NE
Cosmos 1655 Rocket 4.2 00:18:27 10° N 00:24:25 45° ENE 00:30:19 10° SSE
Resurs 1-3 3.4 00:20:31 10° SSE 00:24:45 62° ENE 00:29:00 10° N
Cosmos 1777 Rocket 4.4 00:23:35 10° SSW 00:28:47 63° WNW 00:33:11 15° N
Meteor 1-25 Rocket 4.1 00:24:32 10° N 00:30:22 72° E 00:36:07 10° SSE
NOSS 3-2 (C) 3.2 00:27:19 10° SW 00:32:07 67° NW 00:34:58 28° NNE
SPOT 1/Viking Rocket 4.3 00:41:44 10° S 00:46:47 53° W 00:51:53 10° NNW
Cosmos 2297 Rocket 2.1 00:42:18 10° NNW 00:47:59 89° NE 00:53:39 10° SSE
Cosmos 1726 Rocket 3.8 00:44:31 10° SSW 00:49:07 74° W 00:50:31 45° N
NOSS 2-3 (E) 4.4 00:46:13 10° SSW 00:48:30 33° SSW 00:48:30 33° SSW
NOAA 6 3.8 00:46:16 10° SSE 00:51:23 83° ENE 00:56:31 10° NNW
Cosmos 1461 3.6 00:50:42 10° SW 00:54:05 47° WNW 00:54:05 47° WNW
Helios 1A Rocket 4.0 00:55:08 35° W 00:55:08 35° W 00:57:54 10° SW
BREEZE-M DEB (TANK) 4.0 00:53:21 10° WSW 00:56:27 34° W 00:56:27 34° W
CZ-4C R/B 3.1 00:51:00 10° NNW 00:58:12 55° NE 00:59:10 52° ENE
Meteor 2-20 4.4 00:53:10 10° S 00:59:20 84° W 01:03:11 25° N
YAOGAN 1 3.8 01:01:20 10° S 01:05:19 40° W 01:09:21 10° NNW
Cosmos 1980 Rocket 2.9 01:05:24 10° S 01:09:03 40° S 01:09:03 40° S
Meteor 2-20 Rocket 4.5 01:16:00 10° S 01:22:24 79° W 01:22:33 78° WNW
H-2A R/B 3.6 01:23:53 10° SW 01:25:15 24° SSW 01:25:15 24° SSW
USA 238 DEB 3.9 01:24:46 10° SSW 01:29:10 53° SW 01:29:10 53° SW
USA 238 3.9 01:24:51 10° SSW 01:29:14 52° SSW 01:29:14 52° SSW
USA 215 4.5 01:39:49 30° NNW 01:39:49 30° NNW 01:43:13 10° NW
Cosmos 2227 Rocket 4.1 01:32:55 10° NNW 01:34:33 20° NNW 01:34:33 20° NNW
CZ-4C R/B 4.5 02:39:32 10° NW 02:44:13 32° W 02:44:13 32° W
Atlas Centaur 2 4.5 09:27:36 25° SSE 09:27:36 25° SSE 09:31:14 10° SE
Cosmos 1980 Rocket 4.2 10:04:01 18° NNE 10:06:13 23° ENE 10:10:33 10° ESE
CZ-3 Stage 3 4.0 10:03:34 54° SW 10:06:18 67° S 10:40:42 10° E
Cosmos 1503 Rocket 4.2 10:33:23 62° SSE 10:33:23 62° SSE 10:37:39 10° SSE
Cosmos 1354 Rocket 4.2 10:36:49 53° NNE 10:37:49 66° ENE 10:42:58 10° SSE
Cosmos 1544 Rocket 4.0 10:39:22 61° ESE 10:39:22 61° ESE 10:43:25 10° SSE
Cosmos 1697 Rocket 2.5 10:49:33 67° W 10:49:56 69° WSW 10:55:31 10° S
IRS-1D 3.8 10:46:19 10° NNE 10:51:17 66° ESE 10:56:19 10° S
Atlas 2A Centaur Rocket 4.1 10:54:03 13° S 10:54:03 13° S 10:54:34 10° S
SJ-11-01 4.1 10:50:14 10° N 10:54:56 82° WNW 10:59:36 10° SSW
USA 238 DEB 4.1 10:54:14 42° WNW 10:56:47 59° WSW 11:04:46 10° SSE
USA 238 4.0 10:54:17 42° WNW 10:56:53 60° WSW 11:04:53 10° SSE
Meteor 2-12 Rocket 4.4 10:51:47 10° SSW 10:57:48 60° W 11:03:50 10° N
Nadezhda 4 Rocket 4.4 10:53:47 10° S 11:00:01 64° E 11:06:14 10° NNE
COSMOS 2406 4.5 10:56:01 10° S 11:01:17 42° ESE 11:06:35 10° NE
Cosmos 468 Rocket 3.9 11:01:36 10° SSW 11:06:50 67° WNW 11:12:03 10° NNE
Delta 2 Rocket 3.4 11:07:57 46° SE 11:07:57 46° SE 11:10:18 10° E
Atlas Centaur 2 4.5 11:09:33 16° SW 11:12:11 18° SSW 11:17:21 10° S
Cosmos 1782 4.4 11:14:26 19° SSW 11:14:26 19° SSW 11:15:38 10° SSW
CZ-4 R/B 3.6 11:12:29 10° N 11:17:08 78° WNW 11:21:43 10° SSW
CZ-3 R/B 3.6 11:08:46 22° W 11:18:40 39° SW 11:25:30 10° SSE
Cosmos 1536 Rocket 3.6 11:16:05 10° SSW 11:20:26 54° W 11:24:48 10° N
Cosmos 2082 Rocket 2.1 11:15:01 10° SSW 11:20:35 67° WNW 11:26:12 10° NNE
FengYun 1-2 T 4.5 11:17:38 10° N 11:22:59 44° WNW 11:28:18 10° SW
Helios 1A Rocket 3.2 11:20:00 10° SSE 11:23:14 51° ENE 11:26:06 13° N
SL-16 R/B 4.4 11:19:05 10° N 11:23:21 21° NE 11:27:34 10° ESE
BREEZE-M DEB (TANK) 3.7 11:23:11 21° N 11:23:49 22° NNE 11:27:42 10° ENE
SKYMED 2 3.5 11:27:28 10° S 11:31:46 67° W 11:35:45 12° NNW
BREEZE-M DEB (TANK) 3.4 11:33:08 22° WNW 11:37:41 83° NNE 11:41:02 10° ESE
Cosmos 2098 Rocket 4.1 11:32:20 10° NNW 11:37:41 43° W 11:43:07 10° SSW
SL-8 R/B 3.6 11:39:29 24° NW 11:42:20 86° NNE 11:47:06 10° SE
Cosmos 372 Rocket 3.9 11:38:26 10° NNW 11:43:32 89° WSW 11:48:34 10° SSE
Cosmos 2369 3.7 11:42:54 10° NNW 11:48:37 87° ENE 11:54:17 10° SSE
Tiangong -1.4 11:48:48 25° NW 11:50:15 43° N 11:53:22 10° E
Cosmos 1980 Rocket 2.4 11:45:48 14° NW 11:50:25 48° WSW 11:55:44 10° S
SL-24 R/B - RUBIN 2 3.5 11:47:29 17° NW 11:50:44 68° WSW 11:55:06 10° SSE
USA 267 4.3 11:45:30 10° NE 11:51:46 47° SE 11:57:59 10° SSW
